Regional Weather Roundup
Issued by NWS Albany, NY

Home | Current Version | Previous Version | Graphics & Text | Print | Product List | Glossary On
Versions: 1 2 3 4 5 6 7 8 9 10 11 12 13 14 15 16 17 18 19 20 21 22 23 24 25 26 27 28
000
ASUS41 KALY 301310
RWRALY

NEW YORK STATE HOURLY WEATHER ROUNDUP
NATIONAL WEATHER SERVICE ALBANY NY
900 AM EDT TUE AUG 30 2016

NOTE: "FAIR" INDICATES FEW OR NO CLOUDS BELOW 12,000 FEET WITH NO
SIGNIFICANT WEATHER AND/OR NO OBSTRUCTIONS TO VISIBILITY.

NYZ032-033-038>043-046>054-057>066-NYZ062>081-082-084-301400-
EAST


CITY           SKY/WX    TMP DP  RH WIND       PRES   REMARKS
ALBANY         MOSUNNY   66  58  75 N3        30.19F
GLENS FALLS    SUNNY     65  57  75 CALM      30.19F
POUGHKEEPSIE   SUNNY     67  59  75 N5        30.19S
NEWBURGH       SUNNY     70  61  73 MISG      30.21S
MONTGOMERY     SUNNY     69  61  75 NE5       30.20R
WHITE PLAINS   SUNNY     70  57  63 E5        30.19R
ISLIP          MOSUNNY   73  63  70 SE5       30.17R
NEW YORK CITY  MOSUNNY   75  59  57 NE9       30.17R
CENTRAL PARK   SUNNY     73  59  61 CALM      30.20R
$$

NYZ005>009-017-018-044>046-055-056-301400-
CENTRAL


CITY           SKY/WX    TMP DP  RH WIND       PRES   REMARKS
FULTON         SUNNY     65  62  90 S6        30.19S
SYRACUSE       PTSUNNY   65  59  81 CALM      30.19S
ROME           SUNNY     61  57  87 SE5       30.21S
ELMIRA         FOG       58  57  97 CALM      30.21S VSB 1/4
BINGHAMTON     SUNNY     61  57  87 CALM      30.22F
MONTICELLO     SUNNY     63  59  88 CALM      30.24S
$$

NYZ026>034-041>043-087-301400-
NORTH


CITY           SKY/WX    TMP DP  RH WIND       PRES   REMARKS
WATERTOWN      SUNNY     67  57  70 SW3       30.17S
FORT DRUM      NOT AVBL
MASSENA        SUNNY     64  57  78 SW6       30.17F
SARANAC LAKE   SUNNY     56  54  93 S3        30.20S
PLATTSBURGH    CLOUDY    66  56  70 S6        30.16F
$$

NYZ001>004-010>016-019>021-085-301400-
WEST


CITY           SKY/WX    TMP DP  RH WIND       PRES   REMARKS
NIAGARA FALLS  PTSUNNY   72  63  73 S3        30.17S
BUFFALO        MOSUNNY   68  59  73 S5        30.18S
DUNKIRK        SUNNY     71  63  75 S7        30.18F
JAMESTOWN      SUNNY     61  57  88 S5        30.22F
WELLSVILLE     MOSUNNY   58  57  97 CALM      30.25F
ROCHESTER      MOSUNNY   65  60  84 SW9       30.18F
PENN YAN       SUNNY     64  59  83 SW6       30.21S
$$

             KEY
       WCI = WIND CHILL INDEX
       VSB = VISIBILITY
       HX  = HEAT INDEX
$$




USA.gov is the U.S. government's official web portal to all federal, state and local government web resources and services.